Location: Arbon
(43.0005°N, 0.7472°E)
Time: 04:51:30
(UTC+00:00)

Vanguard 2 Rocket - Pass Details

Date: 19 June 2021
Orbit: 554 x 3325 km, 32.9° (Epoch: 26 July)

Event Time Altitude Azimuth Distance (km) Brightness Sun altitude
Rises 01:24:13 0° 275° (W) 5,951 10.9 -20.7°
Reaches altitude 10° 01:30:02 10° 262° (W) 4,368 10.1 -20.3°
Enters shadow 01:34:25 17° 242° (WSW) 3,327 9.3 -20.0°
